Theta_e
300 300 301 302 301 301 301 302 303 303 305 306 302 301 301 303 299 295 304 305 303 306 315 319 322 325 328 330 332 334 335 335 334 334 334 334 334 335 335 335 336 339 340 338 337 337 338 340 340 341 342 344 344 344 346 346 346 346 348 346 345 344 344 344 343 345 344 345 346 347 351 351 351 350 350 350 351 351 350 350 351 348 349 348 349 349 349
301 301 302 303 302 301 302 302 302 302 303 303 304 303 305 306 303 301 305 306 305 312 317 320 324 328 331 333 336 336 335 334 333 334 334 334 334 334 334 336 339 341 342 338 337 338 339 340 339 340 340 342 343 343 342 342 340 340 342 342 342 342 342 343 344 344 345 348 351 350 348 347 346 347 348 348 349 349 349 349 348 349 348 347 346 346 346
300 301 302 301 302 301 299 301 301 301 302 302 303 304 304 307 305 305 306 306 307 313 319 324 328 330 334 334 334 335 335 335 335 334 333 333 334 335 336 338 340 343 343 341 341 341 340 339 338 340 341 341 340 340 340 340 340 340 340 340 340 339 338 339 341 347 348 351 349 347 347 347 347 347 347 347 344 343 343 342 343 343 345 342 342 343 343
295 300 300 300 300 301 301 300 300 300 300 300 302 304 305 305 303 303 305 306 308 316 324 326 327 327 327 328 329 331 332 334 334 332 332 332 333 334 335 336 338 339 340 340 340 339 339 339 339 339 339 339 340 340 341 341 341 342 341 339 338 338 339 340 342 344 345 345 343 343 342 343 343 343 343 341 341 340 341 341 342 343 341 341 341 341 342
294 297 301 299 300 300 297 298 301 302 301 301 302 304 311 311 306 303 303 306 315 321 326 324 324 326 326 326 328 330 331 331 333 333 334 335 336 335 336 338 338 337 337 336 336 337 338 340 340 340 340 338 338 339 340 340 340 338 338 338 337 338 340 340 342 343 342 342 342 342 341 342 342 341 340 339 338 338 338 340 340 338 338 338 338 338 339
293 299 300 300 296 290 292 301 307 309 306 305 302 301 305 313 308 306 310 314 319 324 324 324 324 325 325 327 328 332 331 332 333 336 337 337 338 338 338 337 337 336 337 338 338 338 339 341 343 343 342 339 338 340 340 339 338 337 336 338 338 339 341 342 342 341 340 339 338 338 338 338 338 337 336 335 335 336 338 337 336 336 336 336 336 336 336
294 297 300 296 289 290 301 306 312 316 315 310 307 308 314 315 316 317 317 318 320 322 323 324 325 326 327 329 330 332 335 337 338 338 338 338 339 338 336 336 337 337 337 335 335 336 337 340 341 343 342 340 338 338 338 338 339 340 340 339 340 339 339 339 338 337 336 336 336 336 335 335 334 333 333 333 334 335 336 335 334 334 334 334 335 337 337
298 296 294 289 288 299 307 310 316 318 315 312 306 305 308 316 317 318 317 318 319 321 322 324 325 327 328 330 331 334 338 342 340 339 338 339 339 338 338 338 337 337 336 335 334 335 339 339 340 343 344 343 341 341 343 342 340 339 338 338 339 340 337 337 335 335 334 333 332 331 332 331 331 331 332 332 332 333 336 333 334 334 333 334 334 334 335
296 294 293 294 300 301 304 310 311 313 308 310 307 300 308 312 317 319 317 318 319 321 323 325 326 328 329 328 328 336 339 340 342 342 343 344 344 343 342 341 340 340 339 339 340 341 340 339 339 338 339 339 340 340 339 338 337 336 336 336 336 336 335 334 334 332 332 331 330 330 329 329 328 329 330 330 331 333 332 332 332 331 332 333 334 333 333
298 296 292 293 292 292 296 309 315 317 319 316 314 309 307 315 319 319 319 318 320 322 323 324 325 327 325 321 323 331 336 340 343 345 346 345 344 344 343 343 343 342 342 342 343 341 340 339 339 339 338 338 337 337 336 334 333 333 333 332 332 332 331 333 331 330 331 330 329 330 329 329 329 329 330 330 330 333 331 330 330 331 331 331 332 333 333
299 296 293 291 293 295 307 310 315 317 319 319 316 309 303 312 317 319 321 319 321 322 322 322 323 320 316 316 322 328 338 342 344 342 342 342 342 341 341 341 340 340 341 341 341 340 339 336 336 337 337 337 336 335 334 331 331 332 331 330 330 330 330 331 330 330 329 330 329 328 327 328 329 329 329 329 332 332 330 329 329 329 331 330 330 330 331
300 299 295 292 299 303 309 313 316 318 320 314 308 299 301 312 317 321 320 320 320 321 322 320 317 316 314 317 321 332 340 342 342 341 339 338 338 338 339 341 341 341 342 339 336 335 334 334 336 336 336 337 339 334 331 331 331 331 330 331 330 329 329 329 328 330 328 330 329 328 326 327 327 327 329 330 328 327 327 327 327 327 328 329 327 328 329
302 303 298 299 304 312 316 315 317 319 320 312 301 295 304 314 319 320 322 319 319 319 317 315 313 316 320 325 329 336 338 336 334 334 334 334 336 338 340 341 346 337 337 336 334 334 334 334 335 335 334 333 333 334 330 328 327 328 329 328 328 327 327 326 327 327 326 327 326 325 326 325 327 329 328 325 326 326 326 326 326 326 326 327 328 328 329
300 299 296 298 303 309 315 317 319 318 310 300 297 309 318 317 318 320 321 319 320 320 318 318 318 321 327 332 334 334 332 330 330 333 335 337 337 339 342 343 339 335 335 334 334 334 334 335 334 333 332 334 332 328 325 323 324 325 325 326 326 325 324 325 326 325 324 325 326 327 326 327 324 324 325 325 326 326 326 325 325 325 326 328 328 328 328
302 301 297 294 290 306 317 317 314 317 306 306 311 316 318 321 320 320 320 321 320 321 320 322 325 328 330 331 331 330 329 329 330 331 333 333 334 334 335 336 339 336 333 333 333 333 334 333 333 332 331 331 330 326 322 322 325 326 326 325 324 323 324 324 324 324 324 324 325 326 326 326 324 323 324 325 325 326 325 325 325 325 326 327 328 328 328
296 297 296 295 300 307 317 316 307 312 315 317 318 319 317 320 321 320 319 320 321 323 324 325 327 328 328 328 328 328 328 329 330 331 332 333 334 334 336 337 336 338 332 332 331 331 331 331 329 328 327 328 327 323 321 323 325 326 324 324 323 323 324 322 323 323 324 325 324 324 324 325 325 325 325 325 325 326 325 325 325 326 326 327 325 322 322
303 300 302 308 312 314 317 322 318 319 321 324 323 320 318 319 320 322 321 321 323 325 327 327 327 327 328 328 328 328 329 329 330 330 331 332 332 333 333 334 336 333 330 329 328 328 328 328 327 325 324 325 323 321 321 324 324 323 324 324 323 322 320 321 322 322 322 322 323 323 324 324 324 325 324 325 324 325 325 325 326 325 323 322 320 319 318
313 313 313 316 318 319 317 319 323 322 322 323 323 323 321 321 323 323 322 322 324 326 328 327 326 327 328 328 329 330 330 331 331 333 332 332 332 332 332 331 332 330 329 328 326 325 325 326 325 325 322 322 322 320 323 324 322 323 323 322 322 321 319 320 321 321 321 322 322 324 324 324 324 324 324 324 325 324 324 323 322 321 320 318 317 316 315
304 300 309 314 315 318 317 317 319 320 321 321 323 323 323 324 326 326 326 325 324 325 326 326 325 326 328 328 330 331 331 331 331 331 331 331 332 331 331 333 333 328 328 327 326 326 323 323 322 322 322 323 322 322 322 323 323 322 322 322 322 320 319 319 320 320 320 321 322 322 322 322 323 324 324 323 320 321 320 319 318 318 316 315 314 314 313
301 302 309 314 319 318 319 317 317 318 319 321 323 324 324 325 326 328 327 327 326 326 325 327 327 327 329 329 330 331 332 332 331 330 331 330 330 331 331 330 329 326 324 324 325 324 321 320 321 323 322 322 322 322 323 323 321 321 322 321 319 317 318 319 320 321 321 326 324 320 321 322 320 319 320 319 318 317 317 317 316 314 313 313 313 312 312
307 310 312 318 316 316 317 319 319 320 320 321 322 324 324 324 324 325 327 328 327 327 327 328 329 328 328 330 330 332 333 332 331 330 330 330 329 329 328 328 328 324 325 324 322 320 320 320 321 321 321 321 322 321 322 322 319 320 320 320 320 317 317 318 318 322 323 322 321 320 321 321 317 317 318 318 317 316 318 317 316 314 312 312 314 312 312
304 304 308 317 307 308 312 317 320 322 322 321 321 322 323 323 323 324 324 326 328 328 329 329 330 328 328 328 331 333 333 332 331 330 330 330 329 328 328 327 326 327 327 322 320 320 319 320 321 321 320 320 320 322 322 321 319 319 319 319 317 316 317 317 319 321 322 320 319 321 321 321 316 315 316 310 312 316 315 315 310 307 308 311 312 313 312
302 311 317 319 313 313 316 316 320 323 322 322 321 321 323 323 322 323 324 323 323 326 327 329 329 327 328 332 334 333 332 331 331 331 330 328 327 326 326 323 321 322 324 324 321 321 320 321 321 320 319 319 318 320 320 320 319 317 316 318 317 317 319 318 320 322 321 319 321 321 322 321 316 315 314 315 304 305 312 315 309 302 301 302 306 311 313
315 317 319 323 318 318 320 324 323 323 324 322 322 323 326 326 325 323 323 323 323 324 326 327 330 333 334 335 335 332 332 331 330 330 329 328 326 326 324 323 324 323 321 321 320 320 319 320 319 318 319 318 318 319 319 319 317 316 315 316 315 315 316 318 321 322 319 321 323 323 323 319 317 317 316 315 316 308 305 307 308 303 301 300 300 303 305
316 322 323 323 320 322 323 323 322 323 325 325 324 323 324 325 326 325 323 324 328 329 329 331 335 336 335 335 334 332 331 330 330 330 332 331 328 325 324 324 322 320 318 318 317 318 319 319 319 319 317 317 318 318 317 318 317 316 317 316 315 315 317 319 321 322 323 322 323 323 323 321 320 319 319 318 315 313 313 308 307 305 303 302 301 301 302
326 324 327 327 325 323 324 323 321 321 323 327 328 330 333 335 329 328 326 329 332 333 334 335 334 335 335 333 332 331 331 332 336 334 326 325 324 324 323 321 320 319 318 318 319 320 319 319 318 317 317 317 316 317 318 317 317 316 316 316 315 317 319 322 321 322 322 322 323 322 322 322 321 319 318 316 313 311 311 312 314 310 308 306 304 303 304
328 328 322 320 319 321 323 317 316 324 321 326 328 330 332 335 341 335 335 335 335 336 335 335 335 334 333 332 332 332 331 332 329 325 323 323 323 322 321 321 321 321 321 320 322 324 325 322 319 317 316 316 316 317 317 318 316 316 316 316 316 321 325 325 323 322 322 321 322 322 321 320 319 318 317 316 316 315 313 313 313 313 314 315 311 306 309
323 324 322 317 315 318 324 327 327 325 323 328 328 328 331 335 336 335 334 334 334 334 335 334 333 331 330 331 332 331 329 325 323 323 323 322 321 321 319 319 319 320 322 322 321 322 321 318 317 316 315 316 317 317 317 317 316 316 317 316 317 318 321 323 324 323 321 320 320 320 320 319 318 318 318 317 317 316 316 317 315 314 315 314 315 314 310
322 322 326 326 324 324 327 328 324 324 323 326 328 328 332 334 334 334 333 333 333 332 331 331 333 332 332 331 330 327 325 324 323 322 322 322 323 320 319 320 321 322 321 320 319 318 317 316 315 314 314 316 317 317 317 316 316 317 318 318 318 320 322 323 322 322 322 322 320 320 321 320 317 317 318 318 318 317 317 316 316 314 313 314 315 314 315
323 325 326 325 327 326 323 322 322 323 324 324 324 326 331 333 332 332 333 332 332 331 330 330 330 331 331 329 328 326 324 323 323 323 322 321 319 320 320 321 320 319 318 317 316 315 315 314 313 313 314 316 318 317 317 316 318 320 319 319 320 321 322 323 322 321 320 320 321 320 319 318 317 317 318 317 317 317 316 317 316 315 313 313 316 312 311
323 324 325 325 326 324 323 322 323 324 323 323 325 326 329 332 332 331 331 331 331 330 330 330 330 330 329 327 326 325 325 324 323 321 320 320 320 320 320 320 318 317 316 315 314 315 314 313 313 313 313 315 318 320 319 318 317 318 318 319 320 323 323 323 322 321 320 321 319 319 319 319 318 319 319 318 317 316 315 315 314 314 315 313 312 312 311
320 322 323 322 323 324 323 322 323 323 322 323 324 325 327 330 330 330 331 331 330 330 330 331 331 329 328 327 326 325 324 322 320 319 319 318 318 319 320 321 321 322 316 315 316 317 314 312 312 314 314 315 319 320 320 319 317 316 315 319 320 320 322 322 323 322 321 321 319 318 320 318 317 319 318 317 315 315 315 315 314 314 312 312 312 310 310
316 315 316 319 323 322 322 322 321 322 323 321 322 324 325 328 332 333 332 332 331 331 332 332 331 329 327 326 324 323 322 320 319 319 318 317 319 320 320 320 319 318 317 316 316 315 314 313 313 315 314 316 317 318 319 317 316 315 315 317 318 321 322 320 320 320 320 320 319 318 319 319 317 317 317 317 317 317 316 315 315 314 313 312 310 309 308
317 316 316 320 322 321 321 322 322 322 323 323 324 324 324 326 329 331 331 332 332 332 332 331 330 328 327 325 324 323 321 319 317 317 316 318 320 320 321 321 319 317 316 316 315 315 315 313 314 314 315 316 316 317 315 315 314 314 316 317 318 318 319 319 320 319 319 319 320 320 318 318 316 315 317 317 317 317 316 317 316 314 312 310 310 310 307
326 326 326 325 324 325 326 326 325 324 324 323 325 325 325 325 326 328 330 330 331 332 332 331 329 327 326 324 323 322 320 318 318 317 317 319 319 319 319 318 317 316 315 314 313 313 314 314 314 314 315 316 316 315 316 315 314 314 316 318 320 319 319 320 319 319 318 318 317 315 315 314 315 318 318 315 313 314 313 314 313 313 311 309 309 311 310
328 327 328 328 328 328 327 327 327 326 325 325 325 326 326 327 326 327 329 328 331 333 331 330 328 327 325 324 323 322 320 319 319 318 318 319 319 319 318 317 316 315 314 313 314 314 314 315 323 323 318 316 315 315 317 315 314 315 318 318 320 321 321 321 320 319 319 317 316 315 315 317 318 317 318 317 315 313 312 311 312 311 310 309 309 309 308
326 326 327 328 329 329 327 327 328 327 326 325 326 327 327 329 329 328 330 330 332 332 330 329 327 325 324 324 324 323 321 320 320 319 319 320 320 319 317 316 316 315 314 312 313 315 315 316 323 323 318 318 315 315 320 321 315 314 314 314 315 317 317 317 317 315 315 316 317 316 317 317 315 315 317 314 314 314 314 310 311 310 310 310 310 308 309
325 326 325 326 326 327 328 330 330 327 328 328 330 331 330 331 331 330 330 331 333 332 331 329 327 326 325 325 323 321 320 320 319 318 320 320 319 318 317 316 315 315 313 313 314 314 314 319 323 319 313 314 314 316 320 321 320 313 311 313 314 316 316 315 315 315 314 314 318 315 315 314 313 313 314 313 312 314 315 314 311 309 308 308 307 308 307
321 322 323 324 325 326 326 328 330 330 329 325 325 328 331 331 333 333 332 331 332 332 330 328 327 326 324 322 321 320 320 319 319 319 319 319 319 317 316 316 316 316 315 316 316 315 321 321 316 314 314 313 314 316 320 321 320 311 311 313 313 314 315 315 315 316 316 315 315 315 313 313 313 313 312 312 313 316 318 315 311 310 308 306 305 305 305
319 321 321 322 323 325 326 327 328 329 330 329 326 325 328 334 335 335 334 332 331 332 330 328 326 324 322 321 320 319 318 319 319 319 318 318 317 316 316 315 317 317 320 326 319 317 322 323 318 314 315 313 314 315 319 320 319 314 312 311 312 313 312 314 314 313 313 313 313 317 313 312 313 315 316 315 314 314 312 311 309 309 307 307 306 307 308
319 320 322 321 323 324 325 326 327 328 328 329 330 329 330 335 335 333 332 332 332 332 330 328 325 324 322 320 319 318 318 320 319 318 317 316 316 316 315 314 317 319 323 321 318 321 324 323 317 315 315 315 315 321 316 320 313 310 310 311 311 311 311 312 313 313 313 313 315 313 312 312 312 312 313 311 311 310 311 311 310 309 307 307 307 308 308
318 320 320 321 321 323 324 326 327 327 327 328 330 331 331 334 333 328 326 326 327 326 323 323 325 322 320 320 320 319 319 319 318 317 317 317 315 315 315 315 319 320 327 326 324 324 322 320 321 322 316 316 318 323 323 317 310 310 309 310 311 313 312 313 312 312 314 314 311 309 311 310 309 309 310 312 312 311 310 310 310 310 309 309 308 307 307
319 319 319 319 320 321 322 322 323 324 326 327 328 327 327 329 324 323 324 324 325 322 321 323 324 323 322 320 319 318 318 318 317 316 316 315 316 317 317 317 319 320 329 324 321 318 318 316 318 317 323 321 320 324 323 312 309 309 309 310 312 312 312 312 312 312 311 309 307 309 308 308 307 308 310 308 309 309 310 309 309 309 309 308 309 310 309
318 318 319 319 320 322 322 322 322 322 322 324 326 322 323 323 324 322 322 323 324 324 322 323 322 321 321 319 318 317 317 317 316 316 315 314 314 316 319 320 318 324 329 323 320 318 317 317 317 324 326 326 326 325 317 311 311 311 310 310 310 310 311 310 310 310 309 312 314 310 308 311 308 307 308 308 308 308 310 309 308 309 309 309 308 309 309
316 316 318 320 321 321 321 321 320 321 323 325 324 321 321 321 324 325 325 325 325 325 324 323 323 322 320 319 318 318 319 318 317 317 314 313 314 315 319 326 323 325 326 326 319 318 316 316 323 330 328 328 328 326 314 311 311 311 310 311 310 310 311 311 311 312 313 311 311 312 313 310 308 309 308 310 313 309 310 310 309 309 310 309 309 309 309
315 316 318 323 321 321 322 322 323 322 322 323 322 321 323 322 322 326 327 326 325 325 325 324 322 322 322 320 318 317 317 317 317 317 316 317 316 317 321 326 322 327 327 327 317 317 315 328 328 328 328 330 329 322 313 313 313 311 311 311 311 312 311 311 312 314 314 315 312 311 311 311 311 310 310 310 310 310 311 313 314 311 310 310 310 310 310
314 314 315 317 318 319 322 322 322 323 322 321 320 319 321 322 324 325 326 326 326 325 325 325 324 323 323 321 318 315 314 313 313 313 314 315 321 322 326 328 329 330 327 322 317 316 316 325 328 328 328 331 332 316 312 312 312 311 311 311 312 311 312 312 312 312 313 312 313 317 321 315 312 311 314 317 314 313 312 313 310 310 310 312 312 316 314
314 313 313 315 316 318 321 321 320 320 320 321 320 320 320 321 322 323 324 325 325 325 324 324 324 323 322 321 318 318 317 315 312 310 313 315 316 319 323 322 325 331 329 327 325 326 328 328 328 330 331 330 329 316 313 313 313 312 311 312 312 311 310 310 309 309 311 313 316 316 313 313 313 310 310 310 310 312 312 312 312 311 311 311 311 310 311
313 313 314 314 315 317 320 320 320 320 320 319 320 320 322 323 322 322 323 324 324 324 323 323 323 322 321 320 318 316 317 317 315 312 313 314 315 316 319 326 330 331 324 317 318 317 327 329 330 331 328 325 318 315 313 313 314 314 314 312 312 312 311 309 309 309 310 312 313 313 312 313 311 310 309 311 312 312 314 313 311 311 311 311 312 312 311
311 312 312 311 312 314 317 318 319 320 320 319 318 319 323 324 322 321 323 323 323 324 323 323 323 322 320 318 317 317 318 317 316 314 314 314 313 314 319 322 323 327 324 316 316 315 329 329 329 328 326 320 317 315 313 313 313 315 314 317 316 313 315 313 316 317 315 318 312 312 312 312 311 312 315 312 311 312 312 311 312 318 322 318 312 311 311
310 310 310 312 313 317 321 321 321 322 322 322 321 322 324 324 323 323 323 324 323 323 322 322 322 322 319 318 317 317 318 316 316 320 314 314 314 320 322 320 321 323 320 318 316 314 315 317 317 324 324 323 315 313 313 314 314 316 321 315 316 314 312 312 311 311 311 314 313 313 313 313 313 314 313 311 312 312 312 313 312 312 311 310 310 310 309
311 310 311 312 315 320 321 321 321 321 322 323 324 324 324 325 323 323 324 325 323 322 322 321 319 320 319 318 317 318 315 316 317 317 320 317 316 316 322 326 318 321 319 316 314 314 314 316 326 328 329 319 315 313 320 325 315 314 317 320 321 316 320 318 322 315 314 316 315 311 316 312 313 313 313 312 313 312 312 311 311 311 311 310 310 310 308
Wind_Speed
7 4 4 2 4 7 7 7 7 8 7 9 5 6 8 6 6 8 7 10 13 10 15 17 17 17 16 17 14 12 13 12 10 12 12 10 8 6 7 6 6 7 7 7 8 8 7 7 7 6 7 6 7 8 8 6 7 8 9 11 14 14 12 10 7 7 9 8 7 4 4 2 1 3 4 4 3 3 3 4 4 6 5 5 6 6 5
4 4 1 1 1 2 3 5 6 6 5 8 10 9 5 12 7 8 11 9 10 9 12 15 14 13 15 9 8 11 13 14 12 13 12 11 9 9 8 7 8 8 9 9 9 8 7 8 7 5 5 6 6 8 7 7 8 7 7 8 9 7 1 6 6 9 9 8 6 3 1 1 3 3 4 4 3 4 4 4 4 4 4 4 4 5 5
2 5 4 3 2 3 4 5 6 4 5 5 6 5 5 7 2 2 11 8 2 3 1 5 5 5 7 10 12 13 13 12 11 12 11 10 9 8 7 8 8 8 8 9 8 9 7 6 7 7 6 5 6 8 7 6 6 5 6 6 6 4 4 5 6 6 5 4 2 2 2 2 3 3 3 3 3 3 3 3 3 3 3 3 3 3 4
1 2 3 5 5 2 1 3 4 6 4 6 3 3 3 3 5 5 8 7 3 1 8 7 8 5 6 9 7 7 6 7 10 11 9 9 9 8 8 7 8 9 9 9 9 9 7 6 5 6 6 5 6 6 5 5 5 4 5 5 3 4 3 3 6 6 3 2 3 3 3 4 3 3 3 4 4 3 3 4 4 4 4 4 4 4 4
2 5 1 4 5 7 8 6 4 6 6 5 4 3 1 2 3 3 7 9 9 12 12 14 6 9 5 6 6 8 6 6 10 10 9 8 8 9 8 8 8 7 8 7 8 7 5 4 5 5 6 7 7 6 5 3 4 3 3 5 5 4 5 8 6 3 2 3 3 4 3 4 4 5 5 5 5 4 5 4 3 4 4 4 4 4 5
1 2 4 4 5 3 3 5 3 3 3 5 6 6 2 1 3 3 7 10 9 14 16 21 16 13 12 12 7 9 12 10 8 8 8 8 8 7 7 7 9 8 6 6 6 6 5 3 3 3 2 5 5 5 5 3 3 3 3 2 2 1 2 1 1 3 4 4 4 5 6 6 6 5 5 4 4 4 3 4 4 4 5 5 5 5 5
2 2 2 2 4 6 7 5 6 12 7 4 2 2 3 6 12 15 14 9 6 6 6 14 14 11 8 7 11 5 7 10 11 11 9 9 9 9 9 8 8 7 9 8 8 7 7 6 5 4 3 3 3 2 4 4 2 4 5 2 1 1 2 4 5 6 7 7 6 5 4 4 4 4 4 4 4 4 4 4 5 5 6 6 5 5 5
1 2 2 0 3 4 3 5 10 14 8 8 9 7 7 3 14 19 13 12 13 11 12 9 9 12 10 9 5 8 6 9 12 11 10 10 10 10 9 11 9 10 9 10 10 8 4 5 4 4 4 4 3 4 7 8 6 5 4 5 6 6 6 6 6 4 4 4 3 3 3 3 3 4 4 4 5 5 5 5 5 5 5 5 6 6 6
1 2 2 6 3 6 9 7 8 7 4 7 7 1 4 5 3 15 17 15 12 11 11 11 11 11 12 10 4 1 5 6 7 11 12 12 11 10 9 10 10 8 9 9 8 7 6 5 6 5 5 8 9 8 7 6 7 6 6 6 6 5 4 3 3 2 1 1 2 3 3 3 4 4 5 6 6 5 5 6 6 6 6 6 6 7 8
2 0 3 4 3 1 5 4 9 7 5 6 7 5 4 6 9 1 18 14 12 13 10 12 11 12 14 9 3 2 4 8 11 10 12 12 12 12 11 9 9 9 9 10 9 9 9 8 6 7 7 8 8 7 5 5 6 5 5 3 2 3 2 0 1 1 2 2 4 4 5 5 5 5 5 4 4 4 5 5 6 6 6 7 7 7 8
3 3 1 2 1 3 3 8 12 12 10 3 2 7 3 4 4 5 9 14 14 14 15 13 12 10 10 7 7 5 7 10 12 13 11 12 11 11 12 12 12 11 10 10 9 9 9 9 6 7 7 8 7 5 4 4 4 4 4 3 3 2 1 1 2 2 3 3 3 3 3 4 4 4 5 5 5 4 5 5 6 6 6 7 7 7 7
2 3 1 2 0 0 5 8 9 12 12 2 7 6 1 0 1 1 2 19 16 15 16 14 8 12 10 10 8 6 10 11 10 13 13 11 11 9 10 10 11 11 10 11 11 10 9 6 5 6 6 7 5 5 5 5 6 4 3 1 1 1 2 3 3 3 3 2 2 3 3 4 4 5 5 5 5 6 6 6 6 6 6 7 8 8 8
2 5 0 0 2 4 5 7 11 10 0 8 8 4 1 4 1 2 0 4 9 11 9 5 7 1 6 12 11 11 12 13 11 9 9 9 10 12 12 12 11 10 10 11 10 9 7 7 7 7 7 7 6 4 5 6 3 0 1 2 3 3 3 3 3 2 2 1 2 3 3 4 4 4 5 6 6 5 6 6 6 7 7 7 7 8 7
1 1 3 3 2 4 3 8 8 4 7 4 1 5 2 5 4 3 2 4 4 3 3 1 2 8 12 13 13 13 13 13 10 10 11 12 11 10 11 13 12 11 10 10 9 8 6 7 7 6 6 5 4 5 5 4 3 3 3 4 4 3 3 2 2 2 2 3 3 3 4 4 4 5 5 5 5 5 6 6 6 7 7 7 7 7 6
2 4 3 2 0 3 3 9 6 6 8 7 6 3 4 3 5 5 3 3 4 7 5 5 13 14 13 14 14 13 13 14 13 14 14 14 13 12 12 11 9 11 9 9 8 7 6 6 6 6 7 6 4 4 6 4 2 3 3 3 3 3 2 3 3 3 3 3 3 3 4 4 4 5 6 5 5 5 5 5 6 7 7 7 7 6 5
3 1 1 1 3 3 3 3 4 3 4 6 5 4 5 4 6 5 7 4 2 7 12 12 11 15 15 13 14 13 12 11 12 12 12 11 11 10 9 10 10 11 10 8 8 6 7 7 6 5 6 5 5 7 4 1 3 3 3 3 2 3 3 3 3 3 3 4 4 4 5 5 5 5 6 6 5 5 5 5 6 7 5 5 5 6 7
2 2 4 6 4 3 4 0 1 3 3 4 6 5 5 7 3 3 7 6 4 7 13 13 14 12 11 14 13 14 12 12 12 12 10 11 11 10 10 9 9 9 10 9 8 7 5 5 4 5 5 7 7 6 1 2 3 3 3 3 3 3 3 3 3 3 4 4 4 4 4 4 5 6 6 5 6 5 4 4 4 4 5 6 6 7 7
1 2 2 1 0 0 0 1 1 2 2 1 2 5 8 4 5 5 9 6 8 7 12 14 7 11 12 12 11 12 12 11 10 10 11 10 9 10 10 10 9 9 9 8 8 7 5 5 7 6 6 7 7 3 1 2 2 2 2 2 1 2 3 3 3 4 4 5 4 4 5 5 5 5 5 6 5 5 5 5 5 5 6 6 6 7 7
3 2 2 0 1 1 1 4 5 4 1 1 3 5 4 7 8 9 7 8 7 7 7 13 13 10 10 12 10 10 11 11 10 11 11 9 9 10 10 8 8 8 7 7 6 6 6 5 6 7 7 6 4 3 3 2 2 1 1 1 1 2 3 4 4 4 4 4 5 5 5 5 4 5 5 5 6 5 5 6 6 6 6 7 7 7 7
3 3 4 3 2 2 1 1 6 3 4 5 6 7 7 7 7 11 10 9 9 8 9 12 15 11 10 13 12 11 10 10 10 10 10 10 9 8 9 8 8 7 7 6 5 6 6 5 6 6 5 4 3 3 2 2 2 2 2 2 3 3 3 4 4 4 3 8 8 5 5 5 5 5 5 6 6 7 6 6 6 6 6 6 6 7 7
4 4 2 0 1 3 2 1 2 7 8 8 6 9 10 10 10 10 9 11 11 9 11 10 14 14 11 13 13 12 10 9 9 9 9 9 10 9 9 7 7 7 5 7 7 6 5 5 5 5 4 3 3 3 3 2 2 2 2 3 3 3 3 3 4 4 4 3 5 5 4 6 6 6 5 5 6 6 5 4 4 4 3 5 5 6 6
1 4 3 1 2 2 3 3 3 5 5 8 7 9 10 9 10 10 12 11 14 14 14 13 13 14 10 8 11 12 10 10 10 10 9 9 10 8 7 6 6 5 6 7 6 6 5 5 5 4 3 3 2 2 2 2 3 3 3 3 2 3 3 4 4 4 4 4 4 4 3 6 6 7 10 9 5 4 4 5 6 5 3 2 3 5 5
2 5 5 4 2 3 5 4 2 4 5 7 9 8 8 7 9 11 12 9 6 9 9 9 12 11 12 11 11 12 10 9 8 10 11 11 9 8 7 7 5 6 7 7 7 6 5 5 4 4 3 3 2 3 3 3 3 2 2 2 3 4 4 4 5 5 4 4 4 3 3 7 6 7 5 5 6 6 6 6 6 7 6 7 7 7 6
1 5 5 5 2 2 2 3 3 4 4 6 6 5 7 8 8 7 11 12 13 8 7 6 11 14 13 12 13 13 10 9 10 9 8 8 8 7 6 6 6 8 8 6 6 5 4 5 4 3 3 2 3 3 3 3 3 2 2 3 3 4 4 4 4 4 3 4 4 5 5 8 6 5 5 5 4 4 5 6 7 8 9 10 10 10 10
2 1 2 3 3 1 3 3 3 3 3 6 7 5 6 6 4 7 8 5 8 14 12 11 9 13 15 12 13 14 11 9 9 11 9 8 8 7 5 7 9 8 6 5 4 5 5 5 4 3 3 3 3 3 3 3 3 3 3 3 3 4 4 4 4 5 5 3 4 3 6 7 5 3 3 4 6 5 5 6 6 7 7 8 9 11 11
4 3 2 2 3 3 3 1 3 4 7 8 6 3 3 6 7 8 8 8 8 12 14 13 12 10 14 13 10 11 11 10 10 10 9 8 6 5 6 8 7 6 5 5 5 6 5 5 4 3 3 3 3 3 3 3 3 3 3 3 3 3 3 4 4 3 4 4 5 6 5 5 6 6 6 6 5 3 3 2 3 5 5 8 9 8 9
3 3 4 5 4 3 3 4 4 2 4 8 10 7 6 6 9 9 8 8 7 9 13 13 13 11 9 11 12 11 13 10 9 8 7 7 7 6 6 6 6 6 5 5 5 6 6 4 3 3 3 3 3 3 3 3 3 3 3 4 4 6 9 6 3 5 5 5 5 5 5 6 6 6 6 4 3 2 1 1 2 4 4 6 8 7 6
4 1 2 2 2 2 1 1 2 3 6 9 9 9 7 8 10 12 12 11 9 8 8 11 13 12 12 10 12 11 10 11 10 8 7 7 5 6 7 7 6 6 6 6 5 4 3 3 3 3 3 3 3 3 3 3 3 3 3 4 4 4 4 4 4 5 5 5 5 5 5 6 6 5 4 3 2 2 2 3 3 3 4 5 4 7 10
3 3 1 3 5 4 1 1 3 6 6 6 8 8 9 11 9 10 9 10 10 10 9 5 7 11 12 10 10 12 10 10 10 9 7 5 5 6 6 7 7 7 6 5 4 4 4 3 3 3 3 3 3 3 3 3 3 3 4 4 4 3 3 4 5 5 5 5 5 6 7 6 5 4 4 4 3 2 3 3 2 3 4 6 8 10 9
3 3 4 4 4 4 5 4 4 4 7 8 9 6 10 13 10 8 9 8 8 10 7 8 8 7 8 10 9 11 12 11 10 7 6 5 6 7 9 8 8 6 5 4 4 3 4 3 3 3 3 3 3 3 3 3 4 4 3 3 3 3 4 4 5 6 5 5 6 8 7 6 5 3 3 3 3 3 2 2 3 4 6 7 6 6 8
3 4 6 4 5 4 7 5 4 4 5 6 10 9 6 12 12 10 8 7 7 9 8 9 9 8 7 8 7 7 10 10 9 7 6 6 7 7 7 6 7 5 4 3 3 3 3 3 2 3 3 3 3 4 4 4 4 4 3 3 3 6 9 9 6 5 5 5 5 6 6 5 3 4 5 3 2 2 3 2 3 5 6 6 7 7 7
4 6 7 5 5 5 4 4 5 5 6 7 9 10 10 12 12 11 9 9 9 11 10 10 10 10 9 9 9 10 10 10 8 7 6 6 6 6 6 7 7 6 4 3 3 3 2 2 3 2 2 3 3 4 5 5 4 5 4 3 4 3 6 9 6 6 6 6 6 6 5 5 4 3 3 2 2 2 2 3 5 4 5 7 7 7 6
6 3 1 4 4 4 4 3 6 5 4 6 6 6 5 5 9 10 10 10 8 7 9 9 8 9 10 10 10 10 10 9 8 7 6 6 7 7 7 7 6 5 4 3 3 3 3 3 1 2 3 3 4 4 4 4 4 4 4 4 3 4 6 6 7 6 7 6 5 5 4 5 3 3 2 2 2 2 2 4 4 4 6 6 6 6 7
9 8 7 9 11 8 7 4 3 5 3 1 4 6 6 6 7 7 8 8 10 11 10 10 10 10 9 10 11 11 11 10 8 7 6 7 8 7 7 7 6 6 4 4 4 3 3 2 1 3 3 3 4 4 4 4 4 4 4 4 4 4 5 4 6 6 7 6 5 6 5 5 4 2 1 1 1 2 2 4 5 5 6 6 6 6 9
6 6 4 3 4 6 8 8 7 5 5 3 2 3 5 5 6 8 7 9 10 9 8 10 10 10 10 10 11 11 10 10 9 8 7 8 8 8 8 8 7 6 5 3 3 3 2 1 1 2 3 4 4 4 4 5 4 5 4 4 5 5 5 5 5 5 5 6 5 5 5 4 2 3 2 2 3 2 3 4 5 5 6 6 6 6 7
7 8 7 7 5 3 3 4 5 6 7 6 5 4 5 8 7 7 8 6 6 9 10 11 11 11 10 11 11 11 10 9 8 8 8 8 8 8 8 8 7 6 5 3 1 1 1 2 6 6 3 3 3 4 4 4 4 4 4 4 5 5 6 6 5 5 4 4 4 3 2 2 2 1 1 2 3 4 5 5 5 5 6 5 5 6 6
9 8 6 7 6 6 4 3 2 2 2 3 4 5 5 5 9 8 8 8 8 10 11 11 11 12 11 10 10 9 9 9 8 8 8 8 8 8 8 7 7 7 5 5 2 1 1 2 6 6 4 3 4 4 5 9 5 5 5 5 5 5 5 6 5 5 3 3 2 2 2 2 2 3 2 3 4 3 3 4 4 4 5 5 5 5 5
10 10 8 7 6 7 6 5 5 5 3 4 3 2 5 6 6 6 9 10 10 11 12 12 12 11 10 9 10 11 10 9 9 9 10 9 8 9 7 8 7 6 5 5 3 3 2 4 7 4 3 4 4 4 7 11 8 5 5 5 5 5 5 5 4 3 3 2 1 2 2 2 3 4 4 4 3 2 1 1 2 4 5 5 5 4 4
11 9 10 9 7 7 6 7 7 5 5 2 0 1 1 4 5 6 7 9 9 10 11 10 10 11 11 12 11 10 10 9 9 10 10 9 7 8 8 7 7 7 6 4 3 3 5 4 3 4 3 4 4 4 7 9 7 4 3 4 5 5 5 4 4 2 1 0 1 1 2 2 2 2 3 3 3 2 1 2 3 3 4 4 5 4 3
9 8 8 8 7 8 7 6 6 6 5 4 2 0 2 3 5 7 8 7 9 11 11 12 12 11 11 11 11 10 9 10 10 11 10 9 7 7 6 3 4 4 5 8 5 4 6 9 5 3 4 4 4 6 4 6 5 3 4 4 4 4 4 3 2 1 0 1 2 3 3 2 2 1 1 0 1 2 3 3 4 4 3 2 2 2 2
5 6 7 7 6 6 6 7 7 6 5 6 5 4 2 4 4 4 5 9 9 10 10 9 9 7 7 7 6 7 8 9 10 10 9 9 8 8 8 7 5 6 6 6 5 5 6 6 4 4 3 3 4 5 4 5 3 3 3 3 3 3 2 1 0 0 1 2 2 2 1 2 4 5 5 5 4 4 4 5 5 3 3 3 2 1 1
4 4 4 4 4 4 5 5 6 8 7 6 6 5 2 4 5 5 5 12 11 10 11 11 12 11 11 12 10 7 7 8 9 8 8 9 9 8 8 7 7 6 10 10 7 6 5 5 4 4 4 4 4 8 7 3 3 2 2 2 1 1 1 1 1 2 2 2 1 0 2 4 5 5 4 5 5 4 5 5 5 4 3 3 2 1 2
6 6 5 3 3 2 3 3 4 5 6 7 6 5 4 5 11 12 11 10 8 7 2 1 10 12 11 10 9 9 9 8 9 8 6 4 6 6 9 9 7 7 15 7 5 5 6 4 5 4 7 6 5 11 8 3 3 3 3 3 2 2 2 3 3 2 1 2 1 2 3 4 4 5 5 4 5 4 4 5 6 4 3 3 3 2 2
5 5 4 4 3 2 1 1 2 2 4 7 5 4 4 1 6 10 11 10 11 13 13 7 6 9 11 11 11 10 9 9 9 8 8 6 3 2 5 7 6 10 17 7 6 6 6 5 6 10 15 14 14 12 6 5 4 5 4 4 3 3 2 2 2 1 2 1 1 1 1 2 3 3 4 4 4 3 3 3 3 3 3 3 3 4 3
4 4 5 5 4 3 3 3 3 4 5 5 4 3 2 1 3 8 10 11 10 13 13 12 12 11 11 12 12 11 11 10 10 10 10 7 7 7 7 9 8 6 10 10 6 6 6 6 10 16 14 15 15 13 6 5 5 5 4 4 3 3 3 2 3 3 3 2 2 2 1 1 1 1 1 2 3 3 5 4 3 3 3 3 3 3 3
4 4 5 6 5 5 4 3 3 3 4 4 3 1 2 3 3 6 10 12 13 13 13 13 12 10 9 9 7 8 7 7 7 7 7 10 12 9 9 9 7 6 12 13 5 6 6 11 15 14 13 16 15 9 6 6 5 5 5 6 4 3 3 3 3 3 3 3 3 3 3 4 3 3 3 3 3 3 2 2 2 2 3 3 3 3 3
3 3 4 4 5 6 5 4 3 4 4 4 4 3 3 4 6 7 8 10 12 13 12 12 12 9 5 7 11 10 9 7 5 3 5 4 5 7 10 13 11 14 11 7 6 6 6 9 11 12 8 9 16 7 7 6 6 5 5 5 5 4 4 4 5 5 5 5 4 3 3 3 4 4 3 3 4 4 3 3 3 3 2 1 1 1 1
3 4 4 4 6 7 5 3 4 4 4 5 3 3 3 3 3 3 5 6 7 8 9 10 12 13 13 9 7 9 12 13 10 5 6 7 7 8 8 7 8 8 9 9 9 8 13 14 14 9 7 7 9 7 7 7 6 6 6 6 5 6 6 6 6 5 3 3 3 4 5 5 4 3 2 4 5 6 5 5 5 3 3 3 1 0 0
4 5 4 4 5 6 6 4 4 4 5 3 1 1 1 4 3 4 6 7 7 7 8 9 11 12 10 9 8 6 5 6 9 10 8 8 8 8 8 9 13 13 9 6 7 5 11 12 9 8 6 6 4 6 7 7 7 6 6 6 6 7 6 6 7 6 4 5 4 3 3 5 5 5 3 2 2 3 4 4 4 4 4 3 3 3 3
4 4 6 6 5 6 6 5 5 5 5 3 3 2 1 2 5 5 5 6 7 8 7 8 9 9 9 8 7 7 7 6 5 5 7 8 8 7 8 9 8 10 9 7 5 6 8 11 8 6 4 3 3 4 7 8 8 7 7 7 7 7 7 7 6 6 5 5 4 3 3 3 5 5 4 3 3 3 3 2 3 4 6 4 4 4 4
5 5 6 6 6 6 6 5 5 5 5 4 3 3 2 2 4 3 3 5 6 8 8 8 7 8 9 8 7 7 7 7 8 8 7 7 7 7 8 8 9 9 8 7 6 7 5 3 3 4 4 3 4 5 6 7 8 8 8 8 7 7 6 5 3 3 1 1 2 4 4 3 3 4 5 4 3 1 2 3 3 3 4 4 4 3 4
4 4 5 6 6 6 5 5 5 3 3 2 2 4 3 3 6 6 5 8 7 8 9 10 8 6 8 9 9 7 6 8 8 8 8 8 7 7 8 9 7 8 8 7 7 6 5 5 4 5 5 4 6 6 7 8 6 6 5 4 4 5 3 3 2 1 1 2 5 4 2 4 4 4 4 5 5 5 4 4 4 4 5 6 6 5 4
Wind_Direction
250 246 243 174 173 180 209 235 244 264 262 267 233 206 208 139 197 204 208 185 154 194 178 172 169 164 164 163 162 146 136 131 135 126 121 117 112 104 96 98 98 95 88 94 99 103 106 98 94 108 117 113 88 78 79 70 60 55 63 58 48 36 21 4 355 329 300 299 274 253 239 235 276 259 266 278 283 281 287 281 269 266 268 269 273 285 284
297 290 294 27 1 246 237 236 245 241 250 265 257 237 205 175 188 200 180 191 174 182 192 178 170 163 150 137 122 125 129 140 141 125 122 123 129 125 121 113 110 114 117 116 120 118 105 103 112 103 74 78 84 88 79 72 72 68 76 82 92 90 211 242 238 248 244 248 260 253 251 238 258 249 241 241 260 281 287 288 294 304 311 310 306 292 295
259 272 308 23 29 5 287 258 241 232 213 254 264 250 208 189 240 134 171 172 51 307 71 81 57 73 98 123 142 142 141 135 124 117 119 125 127 123 114 110 108 110 110 111 109 105 109 111 112 108 108 96 89 82 84 92 98 119 117 122 126 144 221 220 242 252 260 258 262 316 314 282 271 292 318 339 344 329 317 302 285 276 266 268 264 259 261
294 299 15 328 7 334 263 288 300 284 252 268 250 247 216 182 212 161 95 91 140 193 94 87 76 83 115 132 123 103 103 113 111 113 124 125 130 130 127 123 119 113 110 114 111 114 117 120 117 111 108 106 89 91 100 99 108 112 100 96 112 189 212 291 279 269 278 311 342 326 342 348 356 0 10 10 357 342 331 331 322 324 326 316 315 312 304
259 251 257 0 18 14 359 328 296 287 262 220 227 267 240 235 158 136 148 191 189 154 139 119 123 125 117 102 121 117 108 117 125 130 129 128 133 136 128 117 107 106 112 115 112 104 107 125 133 137 130 120 127 138 133 147 131 121 135 154 171 185 205 216 240 271 304 354 12 20 15 12 11 10 6 352 341 335 323 308 319 326 308 312 305 300 292
239 295 49 35 44 23 248 232 313 295 308 283 271 269 202 255 146 203 173 163 164 147 146 140 158 151 154 150 168 156 147 138 128 123 128 129 129 118 109 113 117 119 114 103 95 99 98 93 97 118 107 120 141 146 134 132 149 169 156 100 76 337 293 284 349 36 44 40 29 16 11 8 5 359 349 337 320 313 314 324 322 312 306 298 293 287 281
297 311 21 353 288 245 241 294 322 358 347 71 232 67 107 112 97 94 96 115 138 148 133 133 137 137 130 128 132 132 143 135 138 140 133 132 134 129 127 125 125 124 121 113 110 99 100 109 118 128 123 95 92 97 172 171 138 73 56 70 162 185 77 56 48 35 30 27 22 12 8 2 355 346 335 323 327 320 318 311 307 299 298 296 290 286 285
24 34 53 161 241 238 326 307 6 356 6 9 53 50 345 324 141 133 133 140 139 139 128 126 124 117 113 102 107 137 151 146 139 138 140 141 136 136 143 135 136 137 135 129 124 123 123 92 85 88 116 164 141 86 51 52 51 56 57 46 37 44 45 34 35 30 33 27 9 354 341 340 340 331 331 326 320 314 310 310 303 301 298 291 283 279 274
170 201 156 225 293 337 358 10 348 355 321 318 315 75 312 323 309 134 136 136 136 133 136 128 120 116 105 100 67 66 134 131 127 131 135 138 135 132 135 133 138 139 131 125 130 127 125 121 107 95 76 63 62 58 54 43 49 44 52 51 42 43 49 37 37 21 26 14 344 332 325 336 331 326 325 321 318 315 311 301 298 293 283 275 273 273 275
112 82 346 350 20 318 283 264 272 270 241 255 246 120 9 350 1 281 131 134 130 128 122 119 118 110 101 100 138 167 123 121 116 109 111 115 118 120 119 118 119 118 111 103 98 96 88 68 62 67 70 74 70 65 58 46 50 47 66 71 73 77 70 79 354 348 339 342 341 340 346 338 322 310 302 295 289 285 281 284 281 278 277 277 275 273 274
33 43 140 218 197 241 223 292 306 305 312 295 281 74 22 295 15 328 128 126 136 136 135 140 136 122 120 165 188 182 133 123 121 115 111 112 115 119 124 126 120 112 111 109 105 91 85 83 77 81 83 82 76 71 64 60 67 65 58 57 47 45 353 298 309 314 332 341 337 329 317 299 291 286 279 273 271 274 272 274 276 277 280 280 280 276 271
112 137 93 298 228 284 305 310 301 308 306 54 69 75 261 286 302 109 196 144 153 153 154 155 155 129 130 171 191 161 129 123 120 120 122 118 117 116 113 109 113 113 109 99 89 88 89 96 96 89 87 82 81 74 54 50 51 42 28 359 287 242 252 290 327 354 3 2 338 311 293 285 286 278 272 278 278 279 280 274 279 279 281 282 280 279 277
121 100 283 79 305 288 278 295 309 299 3 65 81 162 223 292 108 75 133 164 142 147 150 163 144 220 156 153 137 129 122 111 104 100 103 111 117 119 117 115 107 98 95 96 100 101 102 92 81 77 74 75 73 69 64 60 42 300 267 289 317 337 360 23 32 11 355 309 295 286 277 276 274 283 284 281 282 281 283 286 285 287 284 282 280 278 279
91 164 123 216 228 237 235 296 303 302 57 35 220 240 254 260 167 104 173 145 95 105 118 165 89 116 111 118 119 122 120 115 111 107 106 103 98 98 105 106 103 101 97 97 97 92 92 92 87 84 82 79 79 78 74 35 334 327 9 31 50 50 42 26 0 333 306 296 287 285 285 291 295 290 285 282 279 279 284 287 288 289 289 286 286 286 288
32 41 68 33 213 281 314 332 344 17 106 212 211 237 323 96 84 102 66 90 120 120 90 99 113 110 110 118 121 119 116 117 117 115 112 111 112 113 109 102 104 108 102 98 97 101 94 89 86 84 84 82 85 81 55 19 34 70 60 46 39 31 18 1 342 323 305 301 304 304 303 302 299 294 295 298 298 297 292 292 292 293 298 301 305 309 313
139 77 107 192 210 231 312 63 130 266 182 192 191 169 92 66 103 105 102 61 102 125 120 117 109 114 116 113 117 113 110 108 106 104 105 106 104 102 100 105 106 98 96 91 85 75 74 73 75 82 93 92 81 70 54 343 49 55 52 26 17 19 0 339 314 315 315 318 316 316 312 313 312 311 309 304 302 298 296 301 305 307 317 339 352 347 338
120 189 214 240 219 221 276 127 202 212 222 183 196 115 103 110 72 104 104 116 110 121 117 116 121 117 119 124 123 120 121 116 115 113 112 111 109 108 106 105 103 98 103 101 93 81 76 85 78 72 77 87 79 78 40 34 44 43 32 17 12 359 337 318 314 314 325 327 323 324 322 326 328 323 315 316 312 311 322 324 331 351 7 4 0 344 342
274 249 183 239 22 312 65 71 166 219 96 74 76 98 110 94 124 125 125 125 117 118 119 112 101 118 127 119 118 117 118 113 108 107 103 97 97 97 95 90 89 97 97 95 94 89 64 61 67 67 68 83 90 104 101 54 48 47 34 14 0 333 315 319 324 330 336 332 328 332 330 323 316 314 313 315 327 5 20 18 15 15 8 8 358 346 346
87 210 311 13 25 306 171 90 43 16 15 135 115 81 74 111 114 107 101 115 119 123 121 122 127 129 131 120 118 116 114 113 113 109 106 102 102 103 99 101 98 90 91 89 93 89 71 58 71 74 81 80 98 116 81 52 42 39 34 20 350 332 333 328 331 332 335 321 335 336 319 321 339 349 353 26 41 34 22 19 21 19 16 13 2 354 351
137 209 239 235 254 274 167 211 121 111 104 100 111 115 116 109 108 110 114 104 102 118 125 135 129 132 132 126 129 126 123 120 118 115 115 114 102 93 99 101 101 96 97 105 96 88 84 75 82 85 85 88 89 83 71 44 20 20 15 356 353 332 328 324 326 325 325 339 340 326 327 2 36 29 46 50 46 41 30 21 26 30 22 14 7 355 344
273 291 301 252 42 351 354 270 234 153 151 126 122 123 125 123 115 118 121 128 132 134 139 142 133 135 146 140 136 128 124 121 122 122 117 112 112 111 104 100 101 113 115 100 102 102 94 95 97 91 87 84 70 59 42 30 20 15 356 348 345 333 320 324 323 324 329 317 315 326 341 60 53 38 33 54 62 52 34 24 31 34 22 5 2 336 335
144 181 242 133 106 234 279 269 199 161 176 133 130 126 123 126 129 131 130 146 151 152 152 150 145 140 135 127 125 126 130 133 129 125 117 112 109 107 108 110 111 110 104 108 103 99 105 110 103 95 86 72 55 47 41 28 20 13 349 329 333 341 327 328 320 329 328 321 315 320 348 96 84 61 44 44 34 76 66 45 44 24 10 15 339 343 330
212 244 231 189 155 196 214 198 245 188 160 140 142 149 143 154 157 151 145 143 136 145 152 145 130 126 127 129 127 125 127 129 131 128 125 122 119 119 120 108 106 97 99 104 101 102 111 112 107 100 83 56 35 23 29 15 12 347 325 332 347 339 337 335 329 340 323 320 318 318 358 99 101 97 95 53 31 30 39 51 41 28 31 25 16 17 14
239 218 217 175 145 159 238 244 205 204 201 144 138 148 143 156 174 178 160 159 149 148 134 125 133 130 130 133 130 126 126 129 121 112 108 113 116 118 115 120 106 96 103 103 109 115 113 112 109 102 85 52 27 12 8 356 347 338 337 352 347 337 330 317 320 325 316 319 331 346 66 110 112 120 111 98 58 22 14 17 22 29 26 15 9 5 19
184 212 195 186 154 203 252 197 187 141 141 129 122 124 134 130 164 163 141 143 148 140 135 131 136 134 133 135 133 133 132 125 121 122 123 119 121 116 115 96 99 110 117 127 123 114 114 115 107 94 74 33 21 5 352 347 337 348 345 351 350 336 325 319 321 335 351 346 2 36 94 122 135 140 118 94 73 55 9 6 24 23 11 5 5 5 12
139 156 185 137 83 37 345 110 58 62 100 106 104 96 91 116 127 122 128 136 140 136 130 132 131 134 129 129 124 121 118 125 128 122 114 114 111 103 97 109 118 121 121 115 108 105 103 102 99 79 61 28 6 347 339 342 350 349 352 355 352 334 327 335 342 9 34 53 61 63 66 80 91 82 75 75 74 70 63 32 1 345 348 354 356 354 352
85 143 97 54 44 15 38 151 187 230 143 120 118 118 105 93 100 101 99 98 107 125 131 132 130 128 121 126 127 128 125 119 107 106 113 114 112 114 117 117 121 118 108 101 99 104 104 101 92 78 50 5 333 338 346 357 5 2 9 7 357 355 8 25 31 60 61 62 68 72 71 68 72 75 75 78 84 74 43 22 344 350 346 332 333 348 345
113 105 115 142 196 192 221 279 263 155 141 129 123 119 122 109 102 101 102 99 95 96 107 125 126 125 125 129 121 114 111 118 122 123 114 119 126 119 117 116 108 102 97 95 95 98 97 98 86 68 30 336 324 346 357 12 20 16 16 19 1 352 342 23 54 71 74 72 69 71 72 75 81 80 79 76 67 38 356 346 352 341 346 338 334 333 348
155 130 110 136 164 176 164 71 87 111 121 125 119 122 114 102 102 105 108 117 122 118 111 107 122 131 131 132 129 128 128 126 123 123 124 126 118 116 109 97 95 92 91 91 87 84 83 74 64 46 360 329 347 1 8 20 23 25 30 14 359 344 16 53 65 70 75 77 74 79 81 77 72 79 86 81 66 30 357 342 349 357 358 357 5 7 11
192 150 124 137 134 118 106 98 105 108 118 122 113 114 122 117 116 120 126 126 126 121 122 122 118 120 126 128 135 137 134 131 126 123 123 124 115 107 104 101 89 79 79 78 80 79 76 71 54 32 352 336 3 13 24 26 27 28 26 10 360 13 61 71 76 74 70 65 81 89 84 78 67 63 70 56 47 16 8 356 5 2 9 7 14 22 24
202 153 149 153 128 127 127 148 126 104 106 110 120 122 128 127 132 136 138 134 129 129 137 134 130 125 124 126 127 120 113 113 115 117 116 113 110 113 117 115 110 111 112 111 101 95 93 79 60 34 352 1 18 27 36 40 36 27 22 17 12 57 82 92 87 80 73 79 81 81 82 81 78 84 75 57 34 19 8 348 352 0 10 16 21 24 18
157 155 163 158 143 138 131 132 134 130 124 126 124 137 146 139 142 145 147 147 152 144 140 137 137 139 136 131 125 116 112 112 113 113 113 109 102 104 107 105 110 114 113 109 104 110 105 87 50 4 6 23 33 40 42 44 39 42 30 36 39 42 74 90 88 84 87 87 88 82 82 84 65 56 57 44 29 11 349 357 2 8 18 31 36 33 20
163 128 79 110 118 133 148 182 148 164 153 148 153 149 147 145 142 148 150 142 132 136 137 138 138 139 136 128 122 119 118 117 117 118 118 109 107 110 106 104 106 107 97 88 104 115 118 101 66 13 31 41 47 46 50 50 48 48 37 42 37 68 83 80 88 91 94 89 82 84 79 83 74 56 43 51 34 13 357 6 11 25 35 42 45 35 37
177 192 183 172 163 168 170 194 205 165 201 192 129 148 148 148 145 140 140 143 144 147 149 147 144 139 133 131 129 127 127 124 125 131 129 119 117 112 109 107 107 100 94 86 84 91 88 95 70 42 46 54 56 56 50 51 52 50 50 50 71 73 75 81 91 101 99 98 95 97 90 92 90 89 80 40 356 344 14 31 47 51 49 41 33 35 33
92 89 96 105 160 166 159 154 170 176 165 158 135 127 136 143 149 156 151 148 153 150 142 136 139 138 136 138 137 137 138 137 140 138 131 127 125 123 120 113 104 97 86 70 79 87 116 130 95 70 63 68 74 69 63 55 52 52 45 63 76 82 87 88 89 95 101 109 114 110 98 80 54 37 17 0 348 8 50 59 61 60 64 54 39 40 39
67 70 61 59 59 82 130 158 169 168 162 164 170 168 153 163 160 154 157 157 148 138 140 141 143 140 144 149 144 142 137 137 137 132 129 133 133 129 124 122 121 113 111 92 80 144 130 144 118 107 97 92 80 76 71 66 47 49 56 58 76 88 95 95 94 98 99 98 90 80 77 64 33 0 358 359 22 26 43 54 52 54 63 59 58 50 41
48 52 49 54 46 52 67 81 106 121 110 126 157 163 175 181 179 176 150 148 154 152 149 145 146 152 159 156 140 132 133 137 139 134 135 139 137 133 128 127 124 126 125 123 191 194 159 144 127 109 94 87 84 80 82 76 55 53 54 65 75 82 90 94 92 76 62 45 55 45 41 20 342 340 354 19 14 9 19 39 54 58 56 59 55 54 47
50 45 39 36 37 38 31 23 34 60 83 90 86 133 183 191 188 167 157 160 161 162 159 158 156 152 143 133 129 134 137 137 134 128 138 145 145 133 135 132 133 130 132 160 187 150 189 150 122 87 93 85 85 84 89 84 75 67 64 78 84 90 90 87 82 76 68 37 31 18 6 349 342 337 341 351 351 345 347 23 66 72 70 66 66 62 59
35 37 33 17 16 28 27 15 23 38 50 58 171 101 150 180 194 172 167 166 168 160 153 150 145 141 141 136 136 136 139 139 134 134 139 144 144 138 148 157 153 158 152 157 136 170 157 137 115 108 94 99 99 93 94 93 84 78 84 91 92 97 102 106 109 112 93 340 330 327 331 312 309 316 322 326 324 333 346 110 104 89 83 80 76 72 63
18 28 34 25 11 359 13 17 16 16 4 16 11 290 213 162 180 186 183 164 168 165 157 153 150 146 142 139 140 143 145 139 138 134 136 136 131 122 114 109 134 139 148 155 152 167 158 148 126 111 110 116 111 106 103 107 106 104 106 106 108 108 114 118 125 137 235 330 312 306 299 291 290 295 288 98 72 63 55 68 85 98 99 94 96 96 84
41 32 36 27 5 351 4 11 5 0 4 357 355 333 210 175 166 150 186 189 178 167 154 145 136 121 98 85 96 129 134 135 134 135 134 127 126 132 136 153 173 161 159 151 163 177 159 144 136 141 158 142 125 120 113 116 111 130 130 118 119 125 122 105 311 281 280 296 299 308 326 39 59 58 67 69 76 84 89 86 79 80 99 114 124 116 120
29 45 57 51 19 7 2 1 357 353 348 344 335 328 308 188 142 140 37 16 13 29 58 65 85 111 138 156 158 150 131 134 132 136 144 146 149 143 144 170 178 168 171 166 176 168 147 147 147 145 156 155 147 139 137 136 149 153 153 165 182 191 217 223 256 273 282 285 291 311 76 80 83 81 74 82 84 89 92 91 88 87 77 82 81 85 77
14 21 24 30 28 25 10 16 356 333 323 322 325 319 335 67 99 118 134 133 110 105 117 258 156 156 150 150 153 146 144 141 139 139 141 146 156 162 157 165 165 176 173 165 166 147 150 146 145 146 157 156 163 158 149 159 189 185 205 225 232 222 233 234 237 236 252 288 340 46 85 92 96 98 99 100 108 107 97 95 102 101 96 100 97 86 69
5 5 2 2 359 357 43 34 354 343 327 311 323 347 334 63 124 137 149 154 146 143 156 175 187 182 167 162 154 151 153 153 148 147 138 136 112 132 149 154 166 174 170 160 159 153 157 157 157 165 166 166 169 163 162 188 202 209 225 232 242 242 255 276 296 323 338 325 316 358 103 90 99 110 116 110 105 95 101 111 115 118 117 107 101 102 101
353 355 347 344 346 357 350 355 342 319 293 292 308 338 309 311 150 149 149 153 154 156 162 166 179 194 181 172 166 163 163 162 157 151 146 153 162 183 184 165 172 172 164 161 155 156 163 166 172 169 171 169 167 169 176 193 211 217 235 241 253 255 272 285 293 297 286 271 271 257 261 206 179 157 140 151 140 141 145 145 146 140 129 126 118 116 122
337 342 345 341 345 332 317 306 298 295 292 286 288 262 193 232 211 171 162 156 160 167 167 164 174 184 183 166 144 130 129 142 155 168 172 171 171 170 170 164 168 160 170 165 152 164 173 179 177 170 174 177 172 165 178 200 211 222 230 236 254 259 258 252 260 263 257 251 244 232 227 241 242 220 196 197 193 179 186 169 157 181 177 177 178 182 186
305 330 338 326 320 317 319 319 317 302 290 284 274 260 212 210 200 189 182 172 164 162 161 154 151 150 181 185 152 141 138 138 139 155 129 118 113 136 165 163 166 170 173 162 169 171 182 183 186 186 198 202 177 166 180 199 208 219 223 243 247 267 266 270 251 235 218 215 223 230 244 240 235 237 222 199 182 183 185 169 173 192 202 184 218 209 146
311 334 325 319 317 311 310 319 323 307 290 260 235 235 208 215 216 186 163 153 156 153 153 151 146 150 160 189 197 165 157 151 148 188 180 147 149 153 162 166 167 164 161 168 172 179 184 181 181 178 185 174 162 178 181 200 208 214 215 228 231 241 247 258 261 259 244 236 221 213 229 244 250 247 221 168 180 182 185 180 194 203 218 208 183 39 112
326 321 313 316 312 309 298 290 291 287 274 251 249 304 224 162 159 171 173 163 153 152 155 156 155 156 160 166 163 152 156 161 159 165 177 153 151 154 163 163 171 171 164 165 172 183 186 181 182 178 199 209 158 170 191 197 206 215 219 219 226 231 234 232 239 244 256 261 263 238 205 196 206 208 223 217 184 163 169 175 174 172 183 155 128 111 102
307 328 326 319 314 302 282 280 284 276 279 259 225 209 273 158 159 182 177 166 161 154 151 157 159 158 152 153 151 148 147 127 91 113 140 147 145 145 150 157 164 164 162 168 175 191 206 190 184 199 211 214 208 182 177 190 199 208 216 217 216 224 226 225 239 240 231 221 223 249 235 202 202 197 197 211 217 176 145 160 173 158 150 139 127 137 142
315 318 306 300 294 275 262 260 270 277 282 260 223 190 180 162 151 140 151 165 155 156 156 157 158 159 151 150 148 148 138 135 138 147 142 145 146 145 141 149 157 164 168 171 180 188 207 210 203 214 224 205 182 179 168 178 185 194 194 200 205 210 210 213 186 176 200 228 241 227 221 197 192 191 191 195 211 202 154 153 148 134 126 126 133 135 129
294 287 289 294 279 260 280 294 295 280 273 250 207 190 166 141 137 143 139 170 185 176 161 153 160 172 158 153 150 144 145 144 147 151 148 145 148 148 152 152 156 164 167 173 181 189 195 214 222 219 218 209 189 192 190 185 184 188 192 197 203 205 200 200 216 229 261 191 190 217 203 177 187 178 146 146 149 147 145 143 136 133 130 133 136 135 127